Location: Newark
(45.4422°N, 16.2769°E)
Time: 03:42:57
(UTC+00:00)

Tiros 1 despin weight - Pass Details

Date: 16 December 2019
Orbit: 593 x 643 km, 48.2° (Epoch: 19 January)

Event Time Altitude Azimuth Distance (km) Brightness Sun altitude
Rises 04:48:06 0° 278° (W) 2,886 - -16.7°
Reaches altitude 10° 04:50:27 10° 282° (WNW) 1,972 - -16.3°
Exits shadow 04:52:47 29° 293° (WNW) 1,130 ? -15.9°
Maximum altitude 04:54:56 61° 3° (N) 693 ? -15.6°
Drops below altitude 10° 04:59:21 10° 84° (E) 1,943 ? -14.8°
Sets 05:01:40 0° 88° (E) 2,839 ? -14.5°
